Regional Weather Roundup
Issued by NWS Albany, NY

Home | Current Version | Previous Version | Text Only | Print | Product List | Glossary On
Versions: 1 2 3 4 5 6 7 8 9 10 11 12 13 14 15 16 17 18 19 20 21 22 23 24 25 26 27 28 29 30 31 32 33 34 35 36 37 38 39 40 41 42 43 44 45 46 47 48 49 50
000
ASUS41 KALY 241610
RWRALY

NEW YORK STATE HOURLY WEATHER ROUNDUP
NATIONAL WEATHER SERVICE ALBANY NY
1200 PM EDT SAT JUN 24 2017

NOTE: "FAIR" INDICATES FEW OR NO CLOUDS BELOW 12,000 FEET WITH NO
SIGNIFICANT WEATHER AND/OR NO OBSTRUCTIONS TO VISIBILITY.

NYZ032-033-038>043-046>054-057>066-NYZ062>081-082-084-241700-
EAST


CITY           SKY/WX    TMP DP  RH WIND       PRES   REMARKS
ALBANY         MOSUNNY   78  60  53 W21G30    29.67R
GLENS FALLS    MOSUNNY   80  59  48 NW13G18   29.63R
POUGHKEEPSIE   MOSUNNY   82  60  47 NW8       29.66R
NEWBURGH       MOSUNNY   81  59  47 NW20G26   29.70R
MONTGOMERY     SUNNY     83  56  39 NW9       29.70R
WHITE PLAINS   MOSUNNY   82  63  51 NW17G23   29.68R
ISLIP          PTSUNNY   83  72  69 NW12      29.65R
NEW YORK CITY  MOSUNNY   83  62  49 NW22G30   29.67R
CENTRAL PARK   SUNNY     81  62  52 W9        29.72R
$$

NYZ005>009-017-018-044>046-055-056-241700-
CENTRAL


CITY           SKY/WX    TMP DP  RH WIND       PRES   REMARKS
FULTON         SUNNY     74  58  57 W13G21    29.75R
SYRACUSE       MOSUNNY   75  55  49 W13       29.74R
ROME           SUNNY     74  58  57 W13G23    29.73R
ELMIRA         NOT AVBL
BINGHAMTON     NOT AVBL
MONTICELLO     MOSUNNY   73  54  49 NW16G24   29.78R
$$

NYZ026>034-041>043-087-241700-
NORTH


CITY           SKY/WX    TMP DP  RH WIND       PRES   REMARKS
WATERTOWN      SUNNY     72  61  68 SW14      29.70R
FORT DRUM      NOT AVBL
OGDENSBURG     FAIR      78  62  57 W8        29.64R
MASSENA        MOSUNNY   76  63  64 SW9       29.63R
SARANAC LAKE   MOSUNNY   71  57  61 W10G21    29.67R
PLATTSBURGH    SUNNY     79  54  41 NW8       29.60R
$$

NYZ001>004-010>016-019>021-085-241700-
WEST


CITY           SKY/WX    TMP DP  RH WIND       PRES   REMARKS
NIAGARA FALLS  MOSUNNY   76  50  40 NW12      29.77R
BUFFALO        MOSUNNY   71  62  73 SW15      29.77S
DUNKIRK        MOSUNNY   70  61  73 W18G26    29.82R
JAMESTOWN      SUNNY     72  52  49 W12G21    29.85R
WELLSVILLE     PTSUNNY   71  54  54 W10G21    29.86R
ROCHESTER      MOSUNNY   76  53  44 W15       29.76R
PENN YAN       MOSUNNY   75  52  44 W12G18    29.78R
$$

             KEY
       WCI = WIND CHILL INDEX
       VSB = VISIBILITY
       HX  = HEAT INDEX
$$



USA.gov is the U.S. government's official web portal to all federal, state and local government web resources and services.